Weather History for KTCM - January, 2015

Change the Weather History Date:

Friday, January 16, 2015

  Actual Average Record
Temperature  
Mean Temperature 45 °F -  
Max Temperature 52 °F 44 °F 55 °F (1974)
Min Temperature 36 °F 33 °F 19 °F (1993)
Degree Days  
Heating Degree Days 20    
Moisture  
Dew Point 45 °F    
Average Humidity 96    
Maximum Humidity 100    
Minimum Humidity 70    
Precipitation  
Precipitation 0.02 in - - ()
Sea Level Pressure  
Sea Level Pressure 30.04 in    
Wind  
Wind Speed 12 mph (SSW)    
Max Wind Speed 17 mph    
Max Gust Speed 24 mph    
Visibility 9 miles    
Events Rain    
Averages and records for this station are not official NWS values.
T = Trace of Precipitation, MM = Missing Value Source: NWS Daily Summary

Daily Weather History Graph

Daily Weather History Graph

Search for Another Location

Airport or City:

Trip Planner

Search our weather history database for the weather conditions in past years. The results will help you decide how hot, cold, wet, or windy it might be!

Date:

Astronomy

Jan. 16, 2015 Rise Set
Actual Time 7:51 AM PST 4:48 PM PST
Civil Twilight 7:16 AM PST 5:22 PM PST
Nautical Twilight 6:39 AM PST 6:00 PM PST
Astronomical Twilight 6:02 AM PST 6:37 PM PST
Moon 3:48 AM PST (1/16) 1:31 PM PST (1/16)
Length of Visible Light 10h 06m
Length of Day
8h 57m
Waning Crescent, 18% of the Moon is Illuminated
Jan 16
Waning Crescent
Jan 20
New
Jan 26
First Quarter
Feb 3
Full
Feb 11
Last Quarter

Hourly Weather History & Observations

Time (PST) Temp. Windchill Dew Point Humidity Pressure Visibility Wind Dir Wind Speed Gust Speed Precip Events Conditions
12:13 AM 48.2 °F - 48.2 °F 100% 29.82 in 10.0 mi SSW 17.3 mph 24.2 mph N/A   Mostly Cloudy
12:43 AM 48.2 °F - 48.2 °F 100% 29.85 in 10.0 mi SSW 15.0 mph - N/A   Mostly Cloudy
12:48 AM 48.2 °F - 48.2 °F 100% 29.85 in 10.0 mi SSW 15.0 mph - N/A   Mostly Cloudy
12:58 AM 47.8 °F - 47.5 °F 99% 29.88 in 10.0 mi SSW 13.8 mph - N/A   Mostly Cloudy
1:18 AM 48.2 °F - 48.2 °F 100% 29.88 in 10.0 mi SSW 15.0 mph - N/A   Overcast
1:43 AM 48.2 °F - 46.4 °F 93% 29.87 in 10.0 mi South 15.0 mph - N/A   Overcast
1:58 AM 47.1 °F - 46.8 °F 99% 29.91 in 10.0 mi SSW 11.5 mph - N/A   Scattered Clouds
2:23 AM 46.4 °F 40.7 °F 46.4 °F 100% 29.90 in 10.0 mi SSW 12.7 mph - N/A   Mostly Cloudy
2:28 AM 46.4 °F 40.7 °F 46.4 °F 100% 29.90 in 10.0 mi SSW 12.7 mph - N/A   Scattered Clouds
2:58 AM 46.2 °F 41.2 °F 46.0 °F 99% 29.95 in 10.0 mi South 10.4 mph - N/A   Scattered Clouds
3:12 AM 46.4 °F 41.9 °F 46.4 °F 100% 29.94 in 10.0 mi South 9.2 mph - N/A Rain Light Rain
3:14 AM 46.4 °F 41.9 °F 46.4 °F 100% 29.94 in 10.0 mi South 9.2 mph - N/A   Mostly Cloudy
3:28 AM 46.4 °F 41.5 °F 46.4 °F 100% 29.94 in 10.0 mi SSW 10.4 mph - N/A   Overcast
3:30 AM 46.4 °F 41.9 °F 46.4 °F 100% 29.94 in 9.0 mi South 9.2 mph - N/A Rain Light Rain
3:40 AM 46.4 °F 41.5 °F 46.4 °F 100% 29.95 in 9.0 mi SSW 10.4 mph - N/A   Light Drizzle
3:50 AM 46.4 °F 41.1 °F 46.4 °F 100% 29.96 in 6.0 mi SSW 11.5 mph - N/A Rain Light Rain
3:58 AM 47.1 °F - 47.1 °F 100% 29.98 in 5.0 mi SW 6.9 mph - 0.00 in Rain Light Rain
4:01 AM 46.4 °F 44.3 °F 46.4 °F 100% 29.97 in 4.0 mi WSW 4.6 mph - N/A   Overcast
4:04 AM 46.4 °F 42.9 °F 46.4 °F 100% 29.97 in 4.0 mi WSW 6.9 mph - N/A Rain Light Rain
4:09 AM 46.4 °F 41.5 °F 46.4 °F 100% 29.97 in 5.0 mi South 10.4 mph 17.3 mph N/A Rain Light Rain
4:19 AM 46.4 °F 40.4 °F 46.4 °F 100% 29.97 in 10.0 mi SSW 13.8 mph 20.7 mph N/A Rain Light Rain
4:25 AM 46.4 °F 39.8 °F 46.4 °F 100% 29.97 in 10.0 mi SSW 16.1 mph 19.6 mph N/A   Overcast
4:40 AM 46.4 °F 40.4 °F 46.4 °F 100% 29.97 in 10.0 mi SSW 13.8 mph - N/A   Mostly Cloudy
4:45 AM 46.4 °F 40.4 °F 46.4 °F 100% 29.97 in 10.0 mi SSW 13.8 mph - N/A   Mostly Cloudy
4:58 AM 46.2 °F 40.1 °F 45.9 °F 99% 30.00 in 10.0 mi SSW 13.8 mph - 0.02 in   Scattered Clouds
5:58 AM 44.6 °F 37.8 °F 44.4 °F 99% 30.02 in 10.0 mi South 15.0 mph - N/A   Clear
6:58 AM 44.2 °F 37.6 °F 43.7 °F 98% 30.05 in 10.0 mi South 13.8 mph - N/A   Clear
7:58 AM 44.2 °F 37.6 °F 43.0 °F 95% 30.08 in 10.0 mi SSW 13.8 mph - N/A   Clear
8:58 AM 45.0 °F 40.6 °F 44.1 °F 97% 30.13 in 10.0 mi South 8.1 mph - N/A   Clear
9:58 AM 48.2 °F - 45.0 °F 89% 30.18 in 10.0 mi SSW 6.9 mph - N/A   Clear
10:58 AM 50.5 °F - 45.7 °F 83% 30.20 in 10.0 mi SSW 11.5 mph 23.0 mph N/A   Partly Cloudy
11:58 AM 51.6 °F - 45.7 °F 80% 30.21 in 10.0 mi South 11.5 mph - N/A   Partly Cloudy
12:58 PM 51.8 °F - 44.2 °F 75% 30.22 in 10.0 mi SSW 11.5 mph - N/A   Partly Cloudy
1:58 PM 52.9 °F - 43.2 °F 70% 30.21 in 10.0 mi SSW 6.9 mph - N/A   Partly Cloudy
2:58 PM 52.0 °F - 43.0 °F 71% 30.22 in 10.0 mi SSW 4.6 mph - N/A   Mostly Cloudy
3:58 PM 48.6 °F - 42.4 °F 79% 30.21 in 10.0 mi South 5.8 mph - N/A   Partly Cloudy
4:58 PM 44.6 °F - 41.7 °F 90% 30.21 in 10.0 mi South 2.3 mph - N/A   Clear
5:58 PM 38.7 °F - 38.3 °F 99% 30.22 in 10.0 mi ESE 1.2 mph - N/A   Partly Cloudy
6:58 PM 39.6 °F - 39.6 °F 100% 30.22 in 10.0 mi ESE 1.2 mph - N/A   Mostly Cloudy
7:58 PM 41.0 °F 38.0 °F 40.8 °F 99% 30.23 in 10.0 mi SSE 4.6 mph - N/A   Mostly Cloudy
8:58 PM 41.4 °F - 40.8 °F 98% 30.23 in 10.0 mi East 2.3 mph - N/A   Clear
9:58 PM 38.7 °F 36.3 °F 38.3 °F 99% 30.22 in 10.0 mi ESE 3.5 mph - N/A   Mostly Cloudy
10:58 PM 38.3 °F - 37.9 °F 99% 30.19 in 10.0 mi SSE 1.2 mph - N/A   Partly Cloudy
11:58 PM 36.3 °F - 36.1 °F 99% 30.18 in 10.0 mi Calm Calm - N/A   Clear